Location: Bermeries
(50.2863°N, 3.7551°E)
Time: 21:48:24
(UTC+00:00)

Resurs 1-4 Rocket - Pass Details

Date: 23 May 2024
Orbit: 798 x 814 km, 98.7° (Epoch: 14 June)

Event Time Altitude Azimuth Distance (km) Brightness Sun altitude
Rises 00:25:32 0° 27° (NNE) 3,318 6.7 -18.4°
Reaches altitude 10° 00:28:40 10° 47° (NE) 2,381 5.3 -18.3°
Maximum altitude 00:32:09 18° 89° (E) 1,892 4.2 -18.2°
Drops below altitude 10° 00:35:38 10° 131° (SE) 2,371 4.3 -18.1°
Enters shadow 00:36:01 - 134° (SE) 2,470 4.3 -18.1°
